EW6571 Weather Reports


Display with metric or nautical units.
time (UTC)temp
F
wind
direction
speed
MPH
gust
MPH
rain 1hr
in
rain 24hr
in
rain mn
in
humidity
%
barometer
mb
20260904000056 73 274 1.0 8.0 0.00 0.00 0.00 23 1003.4
20260903234555 73 263 7.0 12.0 0.00 0.00 0.00 23 1003.5
20260903233053 73 242 3.0 9.0 0.00 0.00 0.00 25 1003.6
20260903231551 72 263 3.0 7.0 0.00 0.00 0.00 24 1003.6
20260903230052 72 126 2.0 8.0 0.00 0.00 0.00 24 1003.9
20260903224550 73 190 5.0 10.0 0.00 0.00 0.00 23 1003.9
20260903223049 73 229 6.0 13.0 0.00 0.00 0.00 23 1004.0
20260903221548 72 250 7.0 12.0 0.00 0.00 0.00 24 1004.1
20260903220049 73 250 4.0 15.0 0.00 0.00 0.00 22 1004.2
20260903214551 73 219 5.0 11.0 0.00 0.00 0.00 22 1004.2
20260903213046 73 266 8.0 16.0 0.00 0.00 0.00 23 1004.4
20260903211550 73 270 2.0 10.0 0.00 0.00 0.00 24 1004.6
20260903210056 73 157 6.0 11.0 0.00 0.00 0.00 23 1004.9
20260903204558 72 274 5.0 15.0 0.00 0.00 0.00 25 1005.0
20260903203039 71 252 2.0 14.0 0.00 0.00 0.00 26 1005.1
20260903201539 71 252 6.0 10.0 0.00 0.00 0.00 26 1005.4
20260903200137 71 298 6.0 12.0 0.00 0.00 0.00 27 1005.3
20260903194537 69 92 5.0 13.0 0.00 0.00 0.00 26 1005.6
20260903193033 69 74 7.0 12.0 0.00 0.00 0.00 27 1005.8
20260903191532 68 132 4.0 9.0 0.00 0.00 0.00 28 1006.0
20260903190029 66 159 3.0 6.0 0.00 0.00 0.00 27 1006.2
20260903184528 68 275 5.0 9.0 0.00 0.00 0.00 25 1006.2
20260903183025 67 248 5.0 9.0 0.00 0.00 0.00 28 1006.5
20260903181521 66 225 2.0 7.0 0.00 0.00 0.00 31 1006.6
20260903180022 65 46 3.0 5.0 0.00 0.00 0.00 35 1006.7
20260903174518 63 230 2.0 4.0 0.00 0.01 0.00 45 1006.8
20260903173009 61 202 0.0 4.0 0.00 0.01 0.00 47 1007.0
20260903171506 60 202 1.0 3.0 0.00 0.01 0.00 48 1007.2
20260903170001 58 202 0.0 2.0 0.00 0.01 0.00 48 1007.1
20260903164600 58 202 0.0 3.0 0.00 0.01 0.00 47 1007.2
20260903163058 57 202 2.0 4.0 0.00 0.01 0.00 46 1007.0
20260903161556 56 202 0.0 2.0 0.00 0.01 0.00 49 1007.0
20260903160054 55 202 1.0 3.0 0.00 0.01 0.00 48 1006.8
20260903154553 56 202 1.0 3.0 0.00 0.01 0.00 51 1006.8
20260903153051 56 202 1.0 4.0 0.00 0.01 0.00 52 1006.7
20260903151559 55 195 1.0 4.0 0.00 0.01 0.00 56 1006.8
20260903150048 52 195 0.0 2.0 0.00 0.01 0.00 60 1006.9
20260903144541 50 195 0.0 2.0 0.00 0.01 0.00 63 1006.8
20260903143040 49 195 2.0 4.0 0.00 0.01 0.00 64 1007.0
20260903141539 47 195 0.0 2.0 0.00 0.01 0.00 69 1007.0
20260903140033 46 195 1.0 2.0 0.00 0.01 0.00 71 1006.8
20260903134532 45 195 0.0 2.0 0.00 0.01 0.00 72 1006.6
20260903133034 44 195 1.0 3.0 0.00 0.01 0.00 71 1006.5
20260903131529 43 195 1.0 3.0 0.00 0.01 0.00 71 1006.6
20260903130027 44 195 0.0 3.0 0.00 0.01 0.00 71 1006.3
20260903124525 44 195 2.0 4.0 0.00 0.01 0.00 71 1006.1
20260903123023 44 195 2.0 4.0 0.00 0.01 0.00 70 1006.0
20260903121520 45 195 0.0 3.0 0.00 0.01 0.00 72 1006.0
20260903120016 45 195 0.0 3.0 0.00 0.01 0.00 72 1005.8
20260903114513 46 195 0.0 2.0 0.00 0.01 0.00 69 1005.8
20260903113013 46 195 1.0 4.0 0.00 0.01 0.00 68 1005.7
20260903111512 47 195 2.0 5.0 0.00 0.01 0.00 63 1005.5
20260903110011 47 195 2.0 4.0 0.00 0.01 0.00 65 1005.7
20260903104511 46 195 0.0 4.0 0.00 0.01 0.00 70 1005.6
20260903103009 46 195 2.0 3.0 0.00 0.01 0.00 70 1005.5
20260903101508 46 195 1.0 3.0 0.00 0.01 0.00 71 1005.2
20260903100002 47 194 2.0 4.0 0.00 0.01 0.00 67 1004.8
20260903094647 47 195 2.0 4.0 0.00 0.04 0.00 66 1004.4
20260903093058 48 266 3.0 6.0 0.00 0.04 0.00 65 1004.1
20260903091601 49 266 3.0 4.0 0.00 0.04 0.00 63 1004.0
20260903090056 49 266 0.0 4.0 0.00 0.04 0.00 62 1004.1
20260903084554 48 265 3.0 7.0 0.00 0.07 0.00 67 1004.5
20260903083053 48 213 1.0 5.0 0.00 0.07 0.00 63 1004.5
20260903081549 48 213 3.0 4.0 0.00 0.07 0.00 63 1004.6
20260903080057 49 213 1.0 3.0 0.00 0.07 0.00 61 1004.5
20260903074546 50 213 3.0 5.0 0.00 0.08 0.00 61 1004.5
20260903073048 51 213 1.0 3.0 0.00 0.08 0.00 62 1004.5
20260903071540 51 213 2.0 5.0 0.00 0.08 0.00 57 1004.5
20260903070039 52 213 2.0 4.0 0.00 0.08 0.00 54 1004.4
20260903064537 52 213 2.0 4.0 0.00 0.08 0.00 60 1004.4
20260903063037 51 213 0.0 0.0 0.00 0.08 0.00 64 1004.5
20260903061535 51 213 1.0 4.0 0.00 0.08 0.00 64 1004.8
20260903060030 52 213 2.0 5.0 0.00 0.08 0.00 59 1004.5
20260903054530 51 178 1.0 4.0 0.00 0.08 0.08 60 1004.6
20260903053030 50 178 2.0 5.0 0.00 0.08 0.08 63 1004.5
20260903051530 51 178 3.0 4.0 0.00 0.08 0.08 61 1004.5
20260903050029 51 178 3.0 5.0 0.00 0.08 0.08 62 1004.2
20260903044535 53 178 2.0 3.0 0.00 0.08 0.08 56 1004.4
20260903043031 53 178 1.0 6.0 0.00 0.08 0.08 58 1004.3
20260903041528 53 178 3.0 5.0 0.00 0.08 0.08 58 1004.1
20260903040032 55 178 4.0 6.0 0.00 0.08 0.08 55 1004.1
20260903034527 55 177 3.0 4.0 0.00 0.08 0.08 48 1004.0
20260903033026 56 177 3.0 6.0 0.00 0.08 0.08 50 1003.9
20260903031526 58 165 2.0 5.0 0.00 0.08 0.08 43 1004.0
20260903030029 58 165 4.0 6.0 0.00 0.08 0.08 48 1004.1
20260903024525 58 106 1.0 3.0 0.00 0.08 0.08 44 1004.1
20260903023030 58 106 2.0 7.0 0.00 0.08 0.08 48 1004.2
20260903021523 58 264 2.0 3.0 0.00 0.08 0.08 49 1003.9
20260903020023 60 264 3.0 6.0 0.00 0.08 0.08 47 1003.7
20260903014522 63 264 4.0 10.0 0.00 0.08 0.08 33 1003.6
20260903013023 66 252 5.0 8.0 0.00 0.08 0.08 28 1003.5
20260903011521 67 232 3.0 5.0 0.00 0.08 0.08 29 1003.4
20260903010022 68 252 1.0 7.0 0.00 0.08 0.08 26 1003.5
20260903004521 69 239 3.0 10.0 0.00 0.08 0.08 27 1003.6
20260903003020 69 193 3.0 9.0 0.00 0.08 0.08 26 1003.6
20260903001525 69 189 1.0 8.0 0.00 0.08 0.08 29 1003.6